(152367) = 2005 UN155

Discovered at Anderson Mesa on 2005-10-26 by LONEOS.

Orbit

Orbit type: Main Belt

Note: WebGL enabled browser required.

epoch2023-09-13.0
epoch JD2460200.5
perihelion date2019-06-30.97555
perihelion JD2458665.47555
argument of perihelion (°)305.28071
ascending node (°)91.56874
inclination (°)14.53483
eccentricity0.1289550
perihelion distance (AU)2.4082472
Tisserand w.r.t. Jupiter3.3
ΔV w.r.t. Earth (km/sec)10.7
semimajor axis (AU)2.7647792
mean anomaly (°)329.10044
mean daily motion (°/day)0.21439430
aphelion distance (AU)3.121
period (years)4.6
P-vector [x]0.77409731
P-vector [y]0.63106516
P-vector [z]0.05030031
Q-vector [x]-0.58123605
Q-vector [y]0.67698647
Q-vector [z]0.45150190
absolute magnitude15.53
phase slope0.15
uncertainty0
referenceMPEC 2024-A34
observations used675
oppositions18
arc length (days)8470
first opposition used2000
last opposition used2023
residual rms (arc-secs)0.76
perturbers coarse indicatorM-v
perturbers precise indicator003Ek
first observation date used2000-09-30.0
last observation date used2023-12-09.0
computer nameMPCLINUX
JD of orbit computation2456966.851495
perihelion JD uncertainty (days)8.2893E-05
argument of perihelion uncertainty (°)3.1180E-05
ascending node uncertainty (°)2.4983E-05
inclination uncertainty (°)6.0301E-06
eccentricity uncertainty 6.6153E-08
perihelion distance uncertainty (AU)1.8588E-07
Minimum Orbit Intersection Distances (in AU)
for orbit epoch: 2460200.5, reference: E2024-A34
Mercury2.08718
Venus1.6989
Earth1.44767
Mars0.94602
Jupiter2.29381
Saturn6.45569
Uranus15.5359
Neptune27.4736

Observations

687 total observations over interval: 2000 09 30.22782 – 2023 12 09.137635
These data are available for download (format description).

Date (UT) J2000 RA J2000 Dec Magn Location Ref
2000 09 30.22782 00 30 39.22 -22 55 41.3 18.7 R 699 – Lowell Observatory-LONEOS MPS 156075
2000 09 30.23824 00 30 38.70 -22 55 44.2   699 – Lowell Observatory-LONEOS MPS 156075
2000 09 30.24866 00 30 38.12 -22 55 46.3   699 – Lowell Observatory-LONEOS MPS 156075
2000 09 30.25908 00 30 37.55 -22 55 48.6   699 – Lowell Observatory-LONEOS MPS 156075
2000 10 18.24191 00 16 18.60 -23 09 27.8 18.5 R 699 – Lowell Observatory-LONEOS MPS 156075
2000 10 18.25443 00 16 18.20 -23 09 26.7   699 – Lowell Observatory-LONEOS MPS 156075
2000 10 18.26695 00 16 17.63 -23 09 25.9   699 – Lowell Observatory-LONEOS MPS 156075
2000 10 18.27947 00 16 16.99 -23 09 23.7   699 – Lowell Observatory-LONEOS MPS 156075
2002 02 10.24753 08 39 16.56 +32 48 44.1 19.3   704 – Lincoln Laboratory ETS, New Mexico MPS 156075
2002 02 10.27889 08 39 14.80 +32 48 53.5 20.4   704 – Lincoln Laboratory ETS, New Mexico MPS 156075
2002 02 10.29421 08 39 13.96 +32 48 57.5 20.2   704 – Lincoln Laboratory ETS, New Mexico MPS 156075
2003 04 09.30502 14 35 28.20 +04 27 00.8 19.0   704 – Lincoln Laboratory ETS, New Mexico MPS 156075
2003 04 09.31651 14 35 27.69 +04 27 02.7 19.7   704 – Lincoln Laboratory ETS, New Mexico MPS 156075
2003 04 09.32801 14 35 27.08 +04 27 07.2 19.5   704 – Lincoln Laboratory ETS, New Mexico MPS 156075
2003 04 09.33973 14 35 26.70 +04 27 09.9 19.7   704 – Lincoln Laboratory ETS, New Mexico MPS 156075
2003 04 28.338520 14 19 49.092 +05 28 05.99 20.13 V 645 – Apache Point-Sloan Digital Sky Survey MPS 156075
2003 04 28.341992 14 19 48.905 +05 28 06.37 21.00   645 – Apache Point-Sloan Digital Sky Survey MPS 156075
2005 09 13.41611 04 13 21.83 +06 01 10.5 19.7 R 699 – Lowell Observatory-LONEOS MPS 150893
2005 09 13.43806 04 13 22.72 +06 01 08.1   699 – Lowell Observatory-LONEOS MPS 150893
2005 09 13.46002 04 13 23.49 +06 01 08.6   699 – Lowell Observatory-LONEOS MPS 150893
2005 09 13.48200 04 13 24.18 +06 01 08.0   699 – Lowell Observatory-LONEOS MPS 150893
2005 10 26.38749 04 13 49.38 +05 24 22.5 18.6 R 699 – Lowell Observatory-LONEOS MPS 147988
2005 10 26.40944 04 13 48.49 +05 24 21.6   699 – Lowell Observatory-LONEOS MPS 147988
2005 10 26.43138 04 13 47.68 +05 24 21.4   699 – Lowell Observatory-LONEOS MPS 147988
2005 10 26.45334 04 13 46.82 +05 24 22.1   699 – Lowell Observatory-LONEOS MPS 147988
2005 10 27.31470 04 13 14.35 +05 24 09.2 18.6 R 699 – Lowell Observatory-LONEOS MPS 147988
2005 10 27.33862 04 13 13.30 +05 24 08.7   699 – Lowell Observatory-LONEOS MPS 147988
2005 10 27.36254 04 13 12.39 +05 24 09.4   699 – Lowell Observatory-LONEOS MPS 147988
2005 10 27.38644 04 13 11.45 +05 24 09.6   699 – Lowell Observatory-LONEOS MPS 147988
2005 10 27.39214 04 13 11.13 +05 24 09.3 18.4 V 703 – Catalina Sky Survey MPS 150893
2005 10 27.39853 04 13 10.84 +05 24 08.9 18.8 V 703 – Catalina Sky Survey MPS 150893
2005 10 27.40526 04 13 10.59 +05 24 08.9 18.8 V 703 – Catalina Sky Survey MPS 150893
2005 10 27.41163 04 13 10.34 +05 24 09.5 18.7 V 703 – Catalina Sky Survey MPS 150893
2005 11 01.35270 04 09 39.96 +05 24 28.1 18.6 V 703 – Catalina Sky Survey MPS 147988
2005 11 01.36060 04 09 39.52 +05 24 28.4 18.3 V 703 – Catalina Sky Survey MPS 147988
2005 11 01.36848 04 09 39.13 +05 24 28.4 18.2 V 703 – Catalina Sky Survey MPS 147988
2005 11 01.37637 04 09 38.80 +05 24 27.9 18.3 V 703 – Catalina Sky Survey MPS 147988
2005 11 04.41025 04 07 12.44 +05 25 57.9 19.1   704 – Lincoln Laboratory ETS, New Mexico MPS 149788
2005 11 04.42216 04 07 11.84 +05 25 56.8 19.3   704 – Lincoln Laboratory ETS, New Mexico MPS 149788
2005 11 04.43408 04 07 11.31 +05 25 56.8 19.2   704 – Lincoln Laboratory ETS, New Mexico MPS 149788
2005 11 04.44599 04 07 10.70 +05 25 58.0 19.2   704 – Lincoln Laboratory ETS, New Mexico MPS 149788
2005 11 05.31696 04 06 26.77 +05 26 35.6 18.7   704 – Lincoln Laboratory ETS, New Mexico MPS 149788
2005 11 05.32911 04 06 26.12 +05 26 35.8 19.6   704 – Lincoln Laboratory ETS, New Mexico MPS 149788
2005 11 05.34145 04 06 25.45 +05 26 36.7 19.2   704 – Lincoln Laboratory ETS, New Mexico MPS 149788
2005 11 05.35367 04 06 24.84 +05 26 36.7 19.2   704 – Lincoln Laboratory ETS, New Mexico MPS 149788
2005 11 05.36623 04 06 24.16 +05 26 37.1 19.3   704 – Lincoln Laboratory ETS, New Mexico MPS 149788
2005 11 06.31605 04 05 35.09 +05 27 24.4 18.7   704 – Lincoln Laboratory ETS, New Mexico MPS 149788
2005 11 06.33023 04 05 34.27 +05 27 25.0 19.3   704 – Lincoln Laboratory ETS, New Mexico MPS 149788
2005 11 06.34330 04 05 33.52 +05 27 25.7 19.9   704 – Lincoln Laboratory ETS, New Mexico MPS 149788
2005 11 06.35557 04 05 32.95 +05 27 25.9 19.0   704 – Lincoln Laboratory ETS, New Mexico MPS 149788
2005 11 06.36817 04 05 32.23 +05 27 27.0 18.9   704 – Lincoln Laboratory ETS, New Mexico MPS 149788
2005 11 07.31319 04 04 42.41 +05 28 21.1 18.8   704 – Lincoln Laboratory ETS, New Mexico MPS 149788
2005 11 07.32549 04 04 41.76 +05 28 21.9 18.9   704 – Lincoln Laboratory ETS, New Mexico MPS 149788
2005 11 07.36250 04 04 39.67 +05 28 24.3 19.2   704 – Lincoln Laboratory ETS, New Mexico MPS 149788
2005 11 08.33099 04 03 47.57 +05 29 26.6 18.9   704 – Lincoln Laboratory ETS, New Mexico MPS 149788
2005 11 08.34362 04 03 46.89 +05 29 27.4 19.5   704 – Lincoln Laboratory ETS, New Mexico MPS 149788
2005 11 08.35663 04 03 46.19 +05 29 28.9 19.4   704 – Lincoln Laboratory ETS, New Mexico MPS 149788
2005 11 08.36962 04 03 45.44 +05 29 29.9 19.2   704 – Lincoln Laboratory ETS, New Mexico MPS 149788
2005 11 09.39694 04 02 49.05 +05 30 44.6 18.1 V 703 – Catalina Sky Survey MPS 149788
2005 11 09.40683 04 02 48.51 +05 30 45.4 18.2 V 703 – Catalina Sky Survey MPS 149788
2005 11 09.41872 04 02 47.83 +05 30 46.5 17.5 V 703 – Catalina Sky Survey MPS 149788
2005 11 09.43340 04 02 47.00 +05 30 47.8 17.9 V 703 – Catalina Sky Survey MPS 149788
2005 11 26.31212 03 46 08.14 +06 12 45.6 18.3 V 703 – Catalina Sky Survey MPS 152262
2005 11 26.31852 03 46 07.71 +06 12 47.3 18.4 V 703 – Catalina Sky Survey MPS 152262
2005 11 26.32497 03 46 07.39 +06 12 48.6 18.2 V 703 – Catalina Sky Survey MPS 152262
2005 11 26.33141 03 46 06.99 +06 12 50.4 18.1 V 703 – Catalina Sky Survey MPS 152262
2005 11 30.24707 03 42 17.85 +06 28 37.7 18.2 R 699 – Lowell Observatory-LONEOS MPS 152262
2005 11 30.26989 03 42 16.59 +06 28 44.8   699 – Lowell Observatory-LONEOS MPS 152262
2005 11 30.29275 03 42 15.25 +06 28 50.8   699 – Lowell Observatory-LONEOS MPS 152262
2005 12 05.23905 03 37 41.91 +06 52 06.9 18.5 V 703 – Catalina Sky Survey MPS 153785
2005 12 05.24596 03 37 41.52 +06 52 08.6 18.4 V 703 – Catalina Sky Survey MPS 153785
2005 12 05.25287 03 37 41.16 +06 52 10.3 18.1 V 703 – Catalina Sky Survey MPS 153786
2005 12 05.25977 03 37 40.76 +06 52 13.2 18.4 V 703 – Catalina Sky Survey MPS 153786
2005 12 07.27299 03 35 56.30 +07 02 42.1 18.7   704 – Lincoln Laboratory ETS, New Mexico MPS 153786
2005 12 07.28681 03 35 55.59 +07 02 46.5 18.6   704 – Lincoln Laboratory ETS, New Mexico MPS 153786
2005 12 07.29958 03 35 54.88 +07 02 50.9 19.2   704 – Lincoln Laboratory ETS, New Mexico MPS 153786
2005 12 07.31235 03 35 54.29 +07 02 54.3 19.1   704 – Lincoln Laboratory ETS, New Mexico MPS 153786
2006 01 23.15052 03 25 36.94 +12 57 57.0 19.3 V 703 – Catalina Sky Survey MPS 160476
2006 01 23.15652 03 25 37.12 +12 57 59.1 19.6 V 703 – Catalina Sky Survey MPS 160476
2006 01 23.16252 03 25 37.12 +12 58 02.2 19.2 V 703 – Catalina Sky Survey MPS 160476
2006 01 23.16851 03 25 37.41 +12 58 06.9 19.8 V 703 – Catalina Sky Survey MPS 160476
2006 01 23.17020 03 25 37.34 +12 58 06.4 19.7 V 703 – Catalina Sky Survey MPS 160476
2006 01 23.17663 03 25 37.56 +12 58 09.2 19.9 V 703 – Catalina Sky Survey MPS 160476
2006 01 23.18304 03 25 37.84 +12 58 14.9 19.5 V 703 – Catalina Sky Survey MPS 160476
2006 01 23.18947 03 25 37.92 +12 58 17.5 19.7 V 703 – Catalina Sky Survey MPS 160476
2007 01 28.41743 11 57 52.70 +20 08 14.7 20.4 V 703 – Catalina Sky Survey MPS 198165
2007 01 28.42454 11 57 52.59 +20 08 18.3 20.8 V 703 – Catalina Sky Survey MPS 198165
2007 01 28.43168 11 57 52.45 +20 08 21.2 21.2 V 703 – Catalina Sky Survey MPS 198165
2007 01 28.43889 11 57 52.45 +20 08 25.0 20.6 V 703 – Catalina Sky Survey MPS 198165
